| time (UTC) | temp F | wind direction | speed MPH | gust MPH | rain 1hr in | rain 24hr in | rain mn in | humidity % | barometer mb |
| 20260508053054 | 40 | 192 | 0.0 | 0.0 | 0.00 | 0.04 | 0.04 | 88 | 1011.5 |
| 20260508051554 | 41 | 192 | 0.0 | 1.0 | 0.00 | 0.04 | 0.04 | 87 | 1011.4 |
| 20260508050049 | 42 | 192 | 0.0 | 2.0 | 0.00 | 0.04 | 0.04 | 87 | 1011.3 |
| 20260508044549 | 42 | 192 | 0.0 | 1.0 | 0.00 | 0.04 | 0.04 | 86 | 1011.1 |
| 20260508043051 | 43 | 192 | 0.0 | 2.0 | 0.00 | 0.04 | 0.04 | 86 | 1011.1 |
| 20260508041547 | 43 | 192 | 0.0 | 2.0 | 0.00 | 0.04 | 0.04 | 85 | 1011.0 |
| 20260508040046 | 44 | 192 | 0.0 | 2.0 | 0.00 | 0.04 | 0.04 | 85 | 1011.0 |
| 20260508034551 | 44 | 192 | 0.0 | 2.0 | 0.00 | 0.04 | 0.04 | 84 | 1010.9 |
| 20260508033044 | 44 | 193 | 0.0 | 2.0 | 0.00 | 0.04 | 0.04 | 83 | 1010.8 |
| 20260508031543 | 45 | 196 | 0.0 | 2.0 | 0.00 | 0.04 | 0.04 | 82 | 1010.8 |
| 20260508030040 | 46 | 192 | 0.0 | 1.0 | 0.00 | 0.04 | 0.04 | 82 | 1010.6 |
| 20260508024545 | 46 | 191 | 0.0 | 3.0 | 0.00 | 0.04 | 0.04 | 81 | 1010.6 |
| 20260508023036 | 47 | 167 | 0.0 | 1.0 | 0.00 | 0.04 | 0.04 | 80 | 1010.5 |
| 20260508021541 | 47 | 167 | 1.0 | 3.0 | 0.00 | 0.04 | 0.04 | 79 | 1010.2 |
| 20260508020034 | 48 | 173 | 1.0 | 5.0 | 0.00 | 0.04 | 0.04 | 78 | 1010.0 |
| 20260508014547 | 49 | 118 | 2.0 | 4.0 | 0.00 | 0.04 | 0.04 | 76 | 1009.9 |
| 20260508013040 | 50 | 250 | 0.0 | 3.0 | 0.00 | 0.04 | 0.04 | 74 | 1009.4 |
| 20260508011540 | 50 | 248 | 1.0 | 4.0 | 0.00 | 0.04 | 0.04 | 74 | 1009.3 |
| 20260508010032 | 51 | 221 | 0.0 | 4.0 | 0.00 | 0.04 | 0.04 | 72 | 1009.2 |
| 20260508004531 | 51 | 253 | 1.0 | 9.0 | 0.00 | 0.04 | 0.04 | 72 | 1009.1 |
| 20260508003051 | 51 | 256 | 4.0 | 8.0 | 0.00 | 0.04 | 0.04 | 71 | 1009.1 |
| 20260508001530 | 52 | 234 | 3.0 | 7.0 | 0.00 | 0.04 | 0.04 | 69 | 1009.2 |
| 20260508000026 | 52 | 250 | 3.0 | 6.0 | 0.00 | 0.04 | 0.04 | 67 | 1009.1 |
| 20260507234526 | 53 | 167 | 2.0 | 11.0 | 0.00 | 0.04 | 0.04 | 65 | 1009.1 |
| 20260507233032 | 53 | 196 | 3.0 | 14.0 | 0.00 | 0.04 | 0.04 | 61 | 1009.1 |
| 20260507231526 | 54 | 175 | 5.0 | 12.0 | 0.00 | 0.04 | 0.04 | 59 | 1009.3 |
| 20260507230124 | 55 | 174 | 2.0 | 12.0 | 0.00 | 0.04 | 0.04 | 58 | 1009.5 |
| 20260507224613 | 58 | 155 | 4.0 | 13.0 | 0.00 | 0.04 | 0.04 | 51 | 1009.2 |
| 20260507223056 | 58 | 33 | 9.0 | 19.0 | 0.00 | 0.04 | 0.04 | 49 | 1009.0 |
| 20260507221547 | 57 | 9 | 10.0 | 18.0 | 0.00 | 0.04 | 0.04 | 52 | 1009.1 |
| 20260507220045 | 57 | 5 | 9.0 | 21.0 | 0.00 | 0.04 | 0.04 | 52 | 1009.3 |
| 20260507214547 | 56 | 49 | 8.0 | 18.0 | 0.00 | 0.04 | 0.04 | 57 | 1009.2 |
| 20260507213043 | 54 | 268 | 5.0 | 12.0 | 0.00 | 0.04 | 0.04 | 69 | 1009.6 |
| 20260507211550 | 54 | 271 | 2.0 | 9.0 | 0.02 | 0.04 | 0.04 | 68 | 1009.7 |
| 20260507210040 | 53 | 284 | 2.0 | 5.0 | 0.04 | 0.04 | 0.04 | 66 | 1009.9 |
| 20260507204537 | 52 | 178 | 2.0 | 7.0 | 0.04 | 0.04 | 0.04 | 68 | 1009.7 |
| 20260507203036 | 52 | 176 | 2.0 | 6.0 | 0.04 | 0.04 | 0.04 | 68 | 1009.8 |
| 20260507201531 | 51 | 152 | 2.0 | 15.0 | 0.02 | 0.02 | 0.02 | 71 | 1010.0 |
| 20260507200027 | 55 | 46 | 12.0 | 19.0 | 0.00 | 0.00 | 0.00 | 55 | 1010.1 |
| 20260507194528 | 55 | 4 | 3.0 | 7.0 | 0.00 | 0.00 | 0.00 | 55 | 1010.2 |
| 20260507193022 | 55 | 313 | 4.0 | 15.0 | 0.00 | 0.00 | 0.00 | 58 | 1010.5 |
| 20260507191519 | 53 | 332 | 4.0 | 18.0 | 0.00 | 0.00 | 0.00 | 61 | 1010.6 |
| 20260507190018 | 54 | 58 | 6.0 | 12.0 | 0.00 | 0.00 | 0.00 | 51 | 1010.9 |
| 20260507184519 | 54 | 307 | 5.0 | 23.0 | 0.00 | 0.00 | 0.00 | 49 | 1011.0 |
| 20260507183015 | 57 | 13 | 8.0 | 19.0 | 0.00 | 0.00 | 0.00 | 40 | 1010.7 |
| 20260507181509 | 56 | 335 | 7.0 | 11.0 | 0.00 | 0.00 | 0.00 | 42 | 1011.1 |
| 20260507180011 | 56 | 355 | 5.0 | 15.0 | 0.00 | 0.00 | 0.00 | 41 | 1011.4 |
| 20260507174503 | 55 | 314 | 6.0 | 17.0 | 0.00 | 0.00 | 0.00 | 41 | 1011.8 |
| 20260507173103 | 55 | 15 | 10.0 | 18.0 | 0.00 | 0.00 | 0.00 | 43 | 1012.2 |
| 20260507171559 | 55 | 31 | 11.0 | 20.0 | 0.00 | 0.00 | 0.00 | 41 | 1012.3 |
| 20260507170057 | 55 | 341 | 3.0 | 17.0 | 0.00 | 0.00 | 0.00 | 42 | 1012.4 |
| 20260507164552 | 54 | 345 | 10.0 | 16.0 | 0.00 | 0.00 | 0.00 | 40 | 1012.6 |
| 20260507163049 | 54 | 333 | 3.0 | 15.0 | 0.00 | 0.00 | 0.00 | 43 | 1012.9 |
| 20260507161545 | 53 | 329 | 7.0 | 12.0 | 0.00 | 0.00 | 0.00 | 44 | 1013.1 |
| 20260507160043 | 53 | 13 | 3.0 | 8.0 | 0.00 | 0.00 | 0.00 | 44 | 1013.3 |
| 20260507154539 | 52 | 23 | 5.0 | 12.0 | 0.00 | 0.00 | 0.00 | 46 | 1013.6 |
| 20260507153035 | 51 | 348 | 5.0 | 12.0 | 0.00 | 0.00 | 0.00 | 46 | 1013.9 |
| 20260507151529 | 49 | 334 | 7.0 | 10.0 | 0.00 | 0.00 | 0.00 | 45 | 1014.2 |
| 20260507150025 | 49 | 12 | 4.0 | 10.0 | 0.00 | 0.00 | 0.00 | 46 | 1014.4 |
| 20260507144521 | 48 | 5 | 8.0 | 16.0 | 0.00 | 0.00 | 0.00 | 48 | 1014.8 |
| 20260507143018 | 48 | 64 | 8.0 | 13.0 | 0.00 | 0.00 | 0.00 | 50 | 1015.0 |
| 20260507141510 | 46 | 345 | 5.0 | 8.0 | 0.00 | 0.00 | 0.00 | 53 | 1015.1 |
| 20260507140013 | 45 | 358 | 5.0 | 10.0 | 0.00 | 0.00 | 0.00 | 56 | 1015.1 |
| 20260507134503 | 44 | 5 | 3.0 | 7.0 | 0.00 | 0.00 | 0.00 | 61 | 1015.2 |
| 20260507133105 | 43 | 356 | 2.0 | 5.0 | 0.00 | 0.00 | 0.00 | 65 | 1015.4 |
| 20260507131557 | 42 | 345 | 1.0 | 5.0 | 0.00 | 0.00 | 0.00 | 67 | 1015.5 |
| 20260507130051 | 41 | 6 | 1.0 | 5.0 | 0.00 | 0.00 | 0.00 | 72 | 1015.4 |
| 20260507124546 | 40 | 16 | 2.0 | 4.0 | 0.00 | 0.00 | 0.00 | 75 | 1015.5 |
| 20260507123044 | 39 | 14 | 1.0 | 6.0 | 0.00 | 0.00 | 0.00 | 77 | 1015.2 |
| 20260507121538 | 38 | 20 | 2.0 | 6.0 | 0.00 | 0.00 | 0.00 | 77 | 1015.1 |
| 20260507120036 | 37 | 45 | 1.0 | 3.0 | 0.00 | 0.00 | 0.00 | 81 | 1015.1 |
| 20260507114536 | 36 | 44 | 1.0 | 3.0 | 0.00 | 0.00 | 0.00 | 83 | 1015.0 |
| 20260507113039 | 35 | 45 | 1.0 | 3.0 | 0.00 | 0.00 | 0.00 | 84 | 1015.0 |
| 20260507111533 | 34 | 44 | 0.0 | 3.0 | 0.00 | 0.00 | 0.00 | 85 | 1014.9 |
| 20260507110031 | 33 | 44 | 1.0 | 2.0 | 0.00 | 0.00 | 0.00 | 84 | 1014.8 |
| 20260507104534 | 34 | 44 | 1.0 | 3.0 | 0.00 | 0.00 | 0.00 | 84 | 1014.8 |
| 20260507103028 | 33 | 45 | 0.0 | 3.0 | 0.00 | 0.00 | 0.00 | 84 | 1014.7 |
| 20260507101626 | 33 | 48 | 0.0 | 2.0 | 0.00 | 0.00 | 0.00 | 83 | 1014.8 |
| 20260507100058 | 34 | 47 | 0.0 | 0.0 | 0.00 | 0.00 | 0.00 | 81 | 1014.7 |
| 20260507094600 | 34 | 47 | 0.0 | 0.0 | 0.00 | 0.00 | 0.00 | 80 | 1014.8 |
| 20260507093028 | 34 | 47 | 0.0 | 0.0 | 0.00 | 0.00 | 0.00 | 80 | 1014.8 |
| 20260507091546 | 34 | 46 | 0.0 | 0.0 | 0.00 | 0.00 | 0.00 | 78 | 1014.9 |
| 20260507090109 | 34 | 46 | 0.0 | 0.0 | 0.00 | 0.00 | 0.00 | 76 | 1014.8 |
| 20260507084549 | 35 | 46 | 0.0 | 0.0 | 0.00 | 0.00 | 0.00 | 75 | 1014.8 |
| 20260507083046 | 35 | 46 | 0.0 | 0.0 | 0.00 | 0.00 | 0.00 | 75 | 1014.8 |
| 20260507081552 | 35 | 46 | 0.0 | 0.0 | 0.00 | 0.00 | 0.00 | 74 | 1014.7 |
| 20260507080042 | 36 | 46 | 0.0 | 0.0 | 0.00 | 0.00 | 0.00 | 74 | 1014.8 |
| 20260507074543 | 36 | 46 | 0.0 | 0.0 | 0.00 | 0.00 | 0.00 | 74 | 1014.9 |
| 20260507073012 | 36 | 46 | 0.0 | 0.0 | 0.00 | 0.00 | 0.00 | 73 | 1014.9 |
| 20260507071509 | 36 | 46 | 0.0 | 0.0 | 0.00 | 0.00 | 0.00 | 73 | 1015.3 |
| 20260507070055 | 36 | 46 | 0.0 | 0.0 | 0.00 | 0.00 | 0.00 | 72 | 1015.3 |
| 20260507064539 | 37 | 46 | 0.0 | 0.0 | 0.00 | 0.00 | 0.00 | 70 | 1015.2 |
| 20260507063006 | 38 | 46 | 0.0 | 0.0 | 0.00 | 0.00 | 0.00 | 68 | 1015.3 |
| 20260507061508 | 38 | 46 | 0.0 | 0.0 | 0.00 | 0.00 | 0.00 | 66 | 1015.3 |
| 20260507060059 | 39 | 46 | 0.0 | 1.0 | 0.00 | 0.00 | 0.00 | 65 | 1015.4 |
| 20260507054617 | 39 | 49 | 0.0 | 1.0 | 0.00 | 0.00 | 0.00 | 64 | 1015.2 |